Date,TemperatureHighF,TemperatureAvgF,TemperatureLowF,DewpointHighF,DewpointAvgF,DewpointLowF,HumidityHigh,HumidityAvg,HumidityLow,PressureMaxIn,PressureMinIn,WindSpeedMaxMPH,WindSpeedAvgMPH,GustSpeedMaxMPH,PrecipitationSumIn
2013-6-1,77.0,69.9,63.0,69.0,65.7,62.0,97,87,68,29.91,29.67,16,4,36,1.97
2013-6-2,71.0,65.7,56.0,67.0,59.0,-99.9,92,83,71,29.94,29.67,12,6,21,0.01
2013-6-3,68.0,58.4,52.0,51.0,46.0,37.0,90,66,38,30.06,29.93,7,3,13,0.00
2013-6-4,73.0,61.5,48.0,53.0,48.8,46.0,96,67,41,30.15,30.06,8,3,14,0.00
2013-6-5,76.0,64.2,53.0,54.0,50.2,44.0,81,62,43,30.11,29.90,11,6,20,0.00
2013-6-6,72.0,62.8,58.0,59.0,53.0,48.0,85,71,58,29.91,29.78,8,5,15,0.00
2013-6-7,67.0,60.3,54.0,57.0,54.0,51.0,95,80,66,29.87,29.82,10,3,17,0.00
2013-6-8,77.0,64.5,50.0,57.0,53.1,49.0,98,70,43,30.00,29.87,4,1,10,0.00
2013-6-9,84.0,72.1,61.0,67.0,59.9,55.0,95,68,38,30.02,29.85,15,3,25,0.08
2013-6-10,79.0,70.4,67.0,68.0,65.6,63.0,96,86,61,29.85,29.67,8,3,17,0.47
2013-6-11,84.0,73.1,64.0,70.0,64.9,62.0,96,77,54,29.88,29.75,8,3,14,0.01
2013-6-12,89.0,76.6,66.0,76.0,69.8,65.0,96,81,58,29.85,29.53,16,1,43,0.03
2013-6-13,78.0,70.3,66.0,67.0,60.6,53.0,99,74,44,29.87,29.44,16,5,43,0.90
2013-6-14,78.0,68.3,60.0,62.0,59.0,56.0,94,74,50,30.03,29.87,8,2,15,0.02
2013-6-15,80.0,68.1,58.0,66.0,61.4,56.0,95,80,53,30.07,29.90,8,2,15,0.02
2013-6-16,80.0,72.4,65.0,71.0,66.9,63.0,94,83,68,29.90,29.83,11,5,21,0.13
2013-6-17,86.0,74.9,66.0,71.0,65.7,59.0,97,76,41,29.90,29.82,6,2,10,0.06
2013-6-18,76.0,69.3,64.0,66.0,61.7,57.0,92,77,61,29.99,29.81,10,4,17,0.00
2013-6-19,79.0,66.0,54.0,58.0,52.3,48.0,88,64,38,30.11,29.99,7,3,13,0.00
2013-6-20,84.0,68.0,55.0,63.0,55.4,50.0,91,66,45,30.16,30.10,6,2,15,0.00
2013-6-22,90.0,85.8,76.0,74.0,71.3,69.0,78,63,53,30.04,29.93,11,6,20,0.00
2013-6-23,90.0,78.4,69.0,71.0,68.4,67.0,97,74,48,30.05,29.93,12,4,22,0.71
2013-6-24,86.0,76.2,68.0,72.0,69.2,67.0,97,80,58,30.03,29.91,10,4,25,0.10
2013-6-25,89.0,78.0,69.0,76.0,70.0,64.0,95,78,56,29.95,29.76,14,6,26,0.13
2013-6-26,86.0,73.8,68.0,76.0,69.3,66.0,97,86,66,29.88,29.69,10,4,16,0.17
2013-6-27,85.0,76.4,70.0,74.0,70.6,66.0,98,84,62,29.71,29.60,7,2,16,0.14
2013-6-28,82.0,72.8,66.0,70.0,66.1,62.0,97,81,56,29.60,29.49,9,2,21,0.01
2013-6-29,77.0,67.8,61.0,67.0,63.9,60.0,98,88,65,29.65,29.50,5,1,10,0.76
2013-6-30,75.0,68.1,63.0,65.0,62.5,60.0,97,83,63,29.85,29.65,11,5,19,0.19